Location: Newark
(22.3060°N, 114.2134°E)
Time: 20:36:45
(UTC+00:00)

Explorer 11/Cluster Stage 4 - Pass Details

Date: 01 August 2021
Orbit: 467 x 1256 km, 28.8° (Epoch: 27 September)

Event Time Altitude Azimuth Distance (km) Brightness Sun altitude
Rises 08:32:01 0° 276° (W) 3,785 11.2 33.3°
Reaches altitude 10° 08:35:42 10° 260° (W) 2,674 10.6 32.4°
Maximum altitude 08:40:08 20° 216° (SW) 1,876 9.1 31.4°
Drops below altitude 10° 08:43:59 10° 171° (S) 2,268 8.9 30.5°
Sets 08:46:49 0° 153° (SSE) 3,042 9.3 29.9°
